Location: *
(26.9300°N, 50.0200°E)
Time: 10:11:14
(UTC+00:00)

Daily predictions for brighter satellites

Satellite Brightness Start Highest point End
(mag) Time Altitude Azimuth Time Altitude Azimuth Time Altitude Azimuth
CZ-3 Stage 3 3.2 15:09:18 10° SW 15:13:34 60° SSE 15:32:50 10° ENE
Nadezhda 2 Rocket 4.5 15:10:27 10° N 15:16:39 75° E 15:22:45 10° S
Ariane Rocket 4.5 15:13:32 10° ESE 15:16:48 17° ENE 15:20:03 10° NNE
SL-16 R/B 2.6 15:16:16 10° S 15:21:30 40° ESE 15:26:44 10° NE
Cosmos 1766 3.5 15:18:09 10° SSE 15:21:59 48° E 15:25:50 10° NNE
CZ-2D R/B 3.3 15:18:37 10° SSE 15:22:22 59° ENE 15:26:08 10° N
YAOGAN 1 2.5 15:18:29 10° SSE 15:22:45 69° ENE 15:27:03 10° N
Cosmos 1674 3.7 15:20:29 10° NNE 15:23:35 24° E 15:26:39 10° SE
Cosmos 1455 Rocket 3.6 15:21:31 10° SSE 15:25:25 34° E 15:29:20 10° NNE
CSL-04 Rocket 3.7 15:21:16 10° SSE 15:26:31 61° ENE 15:31:44 10° N
Meteor 2-21 4.4 15:22:53 10° N 15:28:55 68° E 15:34:58 10° SSE
NOAA 11 4.3 15:26:43 10° S 15:32:08 80° WSW 15:37:34 10° NNW
DELTA 2 R/B (1) 3.7 15:27:34 10° NW 15:33:07 68° NNE 15:38:14 12° ESE
Atlas Centaur 2 2.9 15:27:50 10° W 15:33:48 45° SSW 15:38:31 10° SE
Lacrosse 4 Rocket 3.2 15:30:17 10° NW 15:34:23 37° WSW 15:38:24 10° S
NOSS 3-1 (C) 4.3 15:26:34 10° NNW 15:34:44 78° ENE 15:43:40 10° SSE
GEOS 3 Rocket 3.6 15:30:02 10° SSE 15:35:06 87° ENE 15:40:17 10° NNW
OAO 3 Rocket 3.3 15:32:52 10° WNW 15:37:43 68° NNE 15:41:39 15° ESE
H-2A R/B 3.1 15:35:41 10° SE 15:40:04 26° ENE 15:44:23 10° NNE
Cosmos 1892 Rocket 4.1 15:38:03 10° NNE 15:42:12 36° E 15:46:20 10° SSE
USA 186 3.4 15:45:23 18° E 15:45:49 18° ENE 15:48:13 10° NNE
STARLINK-1162 4.1 15:42:07 10° NW 15:46:13 59° SW 15:50:18 10° SSE
USA 234 3.7 15:39:52 10° NNE 15:46:20 66° NW 15:52:47 10° SW
STARLINK-1129 4.2 15:45:20 10° NW 15:49:24 56° SW 15:53:26 10° SSE
Okean 1-7 Rocket 4.1 15:45:29 10° NNE 15:49:33 37° E 15:53:35 10° SSE
Cosmos 1745 Rocket 4.0 15:43:24 10° N 15:49:35 58° E 15:55:38 10° SSE
STARLINK-1157 4.4 15:47:08 10° NW 15:51:11 52° SW 15:55:13 10° SSE
Cosmos 1626 3.8 15:49:20 10° NE 15:51:07 16° ENE 15:51:07 16° ENE
Cosmos 2237 Rocket 4.2 15:46:59 10° SW 15:51:52 30° WNW 15:56:47 10° N
Cosmos 1544 Rocket 3.6 15:48:30 10° S 15:52:45 55° E 15:57:03 10° NNE
STARLINK-1134 4.4 15:50:23 10° NW 15:54:22 49° SW 15:58:21 10° SSE
Cosmos 1242 Rocket 4.3 15:53:22 10° NNW 15:56:33 34° W 15:59:43 10° SSW
Meteor 2-5 Rocket 3.6 15:53:34 10° N 15:59:10 70° E 16:04:39 10° SSE
Milstar 3 Cent rocket 4.3 15:51:53 10° W 15:59:52 55° SSW 16:14:13 15° SE
Cosmos 1269 Rocket 4.3 15:56:44 10° SSW 16:01:58 69° WNW 16:07:15 10° N
HJ-1C 3.3 15:59:09 10° S 16:02:28 83° W 16:05:49 10° NNW
CZ-2C R/B 4.1 16:00:29 10° NNE 16:04:57 42° E 16:09:20 10° S
ARGOS 3.6 16:03:02 20° SE 16:06:20 40° ENE 16:11:19 10° N
Cosmos 2278 Rocket 2.2 16:02:54 10° NNW 16:08:35 82° WSW 16:14:14 10° SSE
Cosmos 2251 Rocket 4.2 16:04:14 10° SSE 16:08:48 30° E 16:13:23 10° NE
Cosmos 2315 Rocket 3.9 16:03:42 10° S 16:09:52 65° E 16:16:07 10° NNE
CZ-2C R/B 3.6 16:06:19 10° NE 16:09:34 25° ENE 16:09:34 25° ENE
GPS 2-15 Rocket1 4.3 16:09:58 10° SW 16:14:06 28° S 16:15:07 26° SSE
Meteor 1-24 Rocket 3.5 16:09:38 10° N 16:15:03 70° E 16:20:08 11° SSE
CZ-4 R/B 4.4 16:14:49 10° SW 16:16:59 14° W 16:19:08 10° WNW
OAO 2 Rocket 3.4 16:13:50 10° WNW 16:18:55 65° NNE 16:20:37 40° E
IRS-1A Rocket 4.2 16:16:17 10° SSE 16:21:50 80° ENE 16:27:31 10° N
FALCON 9 R/B 4.3 16:14:00 10° W 16:21:58 89° S 16:49:44 28° E
SL-24 R/B 3.8 16:19:09 10° NNE 16:23:18 56° E 16:23:23 56° ESE
SL-08 RB Rocket 4.2 16:24:40 39° ENE 16:24:40 39° ENE 16:28:32 10° N
SEDSat Delta rocket 2.8 16:20:13 10° WSW 16:24:48 87° SSE 16:25:42 55° ENE
Cosmos 1470 2.6 16:21:27 10° S 16:25:17 88° E 16:29:10 10° N
CZ-2C R/B 2.9 16:22:43 24° SSE 16:25:53 70° ENE 16:30:52 10° N
Meteor 2-15 Rocket 4.3 16:21:32 10° S 16:27:31 64° E 16:33:31 10° NNE
SJ-6B 3.0 16:30:45 56° NE 16:30:45 56° NE 16:34:24 10° N
Cosmos 1758 3.3 16:28:16 10° S 16:32:19 83° W 16:36:26 10° N
Resurs 01 Rocket 4.1 16:37:57 10° NNE 16:37:57 10° NNE 16:38:01 10° NNE
SPOT 3 Rocket 3.9 16:39:25 47° ENE 16:39:25 47° ENE 16:44:00 10° N
Cosmos 304 Rocket 3.6 16:35:38 10° NNW 16:40:25 88° WSW 16:41:18 60° S
GOES 2 Rocket 3.1 16:37:06 10° W 16:41:32 86° N 16:41:56 75° E
Cosmos 1709 Rocket 3.9 16:40:59 10° N 16:47:10 85° W 16:50:50 26° S
NOSS 3-3 (A) 3.6 16:46:16 10° SSW 16:51:52 88° WNW 16:57:57 10° NNE
NOSS 3-3 (C) 3.6 16:46:22 10° SSW 16:51:58 90° WNW 16:58:04 10° NNE
Cosmos 1331 Rocket 4.2 16:48:03 10° NNW 16:53:08 66° WSW 16:54:20 49° SSW
Ariane Rocket 4.3 16:50:41 10° SSW 16:55:23 38° W 17:00:06 10° NNW
Delta 128 4.0 16:52:52 10° WSW 16:58:11 84° S 16:58:11 84° S
MOS 1 Rocket 3.5 16:54:43 10° N 17:00:04 86° WNW 17:00:27 77° SSW
SL-14 R/B 4.5 16:56:31 10° NNW 17:00:03 41° W 17:00:03 41° W
Centaur D AC-28 3.9 16:59:54 10° WSW 17:01:37 15° SSW 17:01:37 15° SSW
Cosmos 1943 Rocket 4.0 16:57:58 10° N 16:59:46 18° NNE 16:59:46 18° NNE
ATLAS 3B CENTAUR R/B 4.2 17:16:28 10° WSW 17:16:45 11° WSW 17:16:45 11° WSW
H-2A R/B 3.9 17:15:20 13° SSW 17:19:17 27° W 17:23:45 10° NW
ATLAS 5 CENTAUR R/B 3.5 17:17:52 10° WSW 17:24:21 58° SSE 17:25:58 55° SE
Cosmos 2227 Rocket 4.0 23:46:29 23° ESE 23:47:11 24° ESE 23:51:34 10° NE
